Flag for Switzerland Weather past 2 weeks in Pratteln, Basel-Land, Switzerland

Now
46 °F

Sunny.


Feels Like: 43 °F
Forecast: 30 / 49 °F
Wind: 7 mph from West

Location: Bale-Mulhouse

Current Time: Dec 22, 2014 at 1:47:28 PM

Latest Report: Dec 22, 2014 at 1:00 PM


Visibility: 10 mi

Pressure: 30.42 "Hg

Humidity: 71%

Dew point: 37 °F

Location of PrattelnLocation

Historic Weather in Pratteln — Graph

°F

Pratteln temperature yesterday

Maximum temperature yesterday: 46 °F (at 1:00 PM)
Minimum temperature yesterday: 39 °F (at 3:30 AM)
Average temperature yesterday: 42 °F

Past Weeks' High & Low Weather Summary

 TemperatureHumidityPressure
High55 °F (Dec 18, 4:00 PM)100% (Dec 8, 8:00 PM)30.57 "Hg (Dec 8, 8:00 PM)
Low28 °F (Dec 10, 2:00 AM)58% (Dec 12, 11:30 AM)29.80 "Hg (Dec 12, 6:00 PM)
Average43 °F86%30.15 "Hg
* Reported Dec 7 12:00 Noon — Dec 22 12:30 PM, Pratteln, Weather by CustomWeather, © 2014

Note: Actual official high and low records may vary slightly from our data, if they occured in-between our weather recording intervals... More about our weather records

Advertising

Pratteln weather history for previous 24 hours

 ConditionsComfort  
Time TempWeatherWind HumidityBarometerVisibility
12:30 PM
Dec 22
45 °FPartly sunny.9 mph76%30.45 "HgN/A
12:00 PM45 °FPartly sunny.7 mph71%30.45 "HgN/A
11:30 AM45 °FPartly sunny.13 mph71%30.45 "HgN/A
11:00 AM45 °FPartly sunny.10 mph71%30.48 "HgN/A
10:30 AM41 °FPartly sunny.12 mph81%30.48 "HgN/A
10:00 AM43 °FPartly sunny.8 mph71%30.48 "HgN/A
9:30 AM39 °FPartly sunny.6 mph81%30.48 "HgN/A
9:00 AM39 °FPartly sunny.7 mph81%30.45 "HgN/A
8:30 AM37 °FPartly sunny.6 mph81%30.45 "HgN/A
8:00 AM39 °FPassing clouds.5 mph75%30.45 "HgN/A
7:30 AM39 °FPassing clouds.9 mph75%30.45 "HgN/A
7:00 AM39 °FPassing clouds.9 mph81%30.45 "HgN/A
6:30 AM41 °FPassing clouds.10 mph76%30.45 "HgN/A
6:00 AM41 °FPassing clouds.8 mph76%30.45 "HgN/A
5:30 AM41 °FPassing clouds.8 mph76%30.48 "HgN/A
4:30 AM41 °FOvercast.6 mph76%30.48 "HgN/A
4:00 AM41 °FOvercast.9 mph76%30.48 "HgN/A
3:30 AM43 °FOvercast.9 mph71%30.48 "HgN/A
3:00 AM41 °FOvercast.7 mph81%30.48 "HgN/A
2:30 AM41 °FOvercast.3 mph76%30.48 "HgN/A
2:00 AM41 °FOvercast.2 mph76%30.48 "HgN/A
1:30 AM41 °FOvercast.3 mph76%30.48 "HgN/A
1:00 AM41 °FOvercast.6 mph81%30.51 "HgN/A
12:30 AM41 °FOvercast.5 mph81%30.51 "HgN/A
12:00 AM41 °FPassing clouds.5 mph81%30.51 "HgN/A
11:35 PM
Dec 21
41 °FPassing clouds.3 mph81%30.51 "HgN/A
10:30 PM41 °FPassing clouds.7 mph81%30.54 "HgN/A
10:00 PM41 °FPassing clouds.6 mph76%30.54 "HgN/A
9:30 PM41 °FPassing clouds.3 mph76%30.54 "HgN/A
9:00 PM43 °FPassing clouds.2 mph71%30.54 "HgN/A
8:30 PM43 °FPassing clouds.6 mph71%30.54 "HgN/A
8:00 PM43 °FPassing clouds.No wind71%30.54 "HgN/A
7:30 PM43 °FPassing clouds.3 mph76%30.54 "HgN/A
7:00 PM43 °FPassing clouds.3 mph76%30.54 "HgN/A
6:30 PM43 °FPassing clouds.3 mph81%30.54 "HgN/A
6:00 PM43 °FPassing clouds.2 mph81%30.54 "HgN/A
5:30 PM43 °FPassing clouds.2 mph81%30.54 "HgN/A
5:00 PM43 °FPassing clouds.2 mph87%30.54 "HgN/A
4:30 PM45 °FPartly sunny.No wind76%30.51 "HgN/A
4:00 PM45 °FPartly sunny.1 mph76%30.54 "HgN/A
3:30 PM45 °FPartly sunny.2 mph76%30.54 "HgN/A
3:00 PM45 °FPartly sunny.7 mph76%30.54 "HgN/A
2:30 PM45 °FPartly sunny.7 mph76%30.54 "HgN/A
2:00 PM45 °FPartly sunny.6 mph76%30.54 "HgN/A
1:30 PM45 °FPartly sunny.7 mph76%30.54 "HgN/A
1:00 PM46 °FBroken clouds.7 mph71%30.54 "HgN/A
Weather by CustomWeather, © 2014

See weather overviewHow to use our weather pages